Location: Melbourne
(37.8170°S, 144.9670°E)
Time: 21:35:33
(UTC+10:00)

Vanguard 1 Rocket - Visible Passes

Search period start: 02 September 2014 00:00
Search period end: 12 September 2014 00:00
Orbit: 652 x 4228 km, 34.3° (Epoch: 01 September)

Date Brightness Start Highest point End Pass type
(mag) Time Alt. Az. Time Alt. Az. Time Alt. Az.
02 Sep 10.1 02:18:45 19° E 02:18:45 19° E 02:20:22 10° E visible
02 Sep 7.9 04:36:04 44° WNW 04:38:48 68° N 04:44:29 10° E visible
03 Sep 8.5 03:29:07 58° NE 03:29:07 58° NE 03:34:39 10° E visible
03 Sep 7.7 05:46:26 14° W 05:53:28 59° NNW 05:58:22 10° ENE visible
04 Sep 9.9 02:22:10 25° E 02:22:10 25° E 02:24:39 10° E visible
04 Sep 8.0 04:39:29 40° WNW 04:42:53 69° N 04:48:40 10° E visible
05 Sep 8.4 03:32:31 68° NNE 03:32:31 68° NNE 03:38:51 10° E visible
05 Sep 7.9 05:49:49 12° W 05:57:28 52° NNW 06:02:25 10° ENE visible
05 Sep 11.6 21:11:00 10° NNE 21:12:47 11° NNE 21:12:47 11° NNE visible
06 Sep 9.6 02:25:33 31° E 02:25:33 31° E 02:28:53 10° E visible
06 Sep 8.0 04:42:51 36° W 04:46:56 68° N 04:52:49 10° ENE visible
06 Sep 11.5 22:20:17 10° NNW 22:23:32 15° NNW 22:23:32 15° NNW visible
07 Sep 10.7 01:18:34 10° E 01:18:34 10° E 01:18:39 10° E visible
07 Sep 8.4 03:35:52 73° N 03:35:56 73° N 03:43:02 10° E visible
07 Sep 8.1 05:53:11 10° W 06:01:24 44° NNW 06:06:21 10° NE visible
07 Sep 11.4 21:09:49 10° N 21:17:02 17° NNE 21:17:02 17° NNE visible
08 Sep 9.4 02:28:53 39° E 02:28:53 39° E 02:33:04 10° E visible
08 Sep 8.1 04:46:11 32° W 04:50:57 63° NNW 04:56:55 10° ENE visible
08 Sep 11.4 20:03:28 10° NNE 20:10:37 13° NE 20:10:37 13° NE visible
08 Sep 11.4 22:21:40 10° NNW 22:27:59 20° NNW 22:27:59 20° NNW visible
09 Sep 10.5 01:21:54 15° E 01:21:54 15° E 01:22:52 10° E visible
09 Sep 8.4 03:39:12 70° NW 03:39:58 73° N 03:47:12 10° ENE visible
09 Sep 8.4 05:57:12 10° W 06:05:12 36° NNW 06:10:09 10° NE visible
09 Sep 11.2 21:10:08 10° NNW 21:21:40 24° NNE 21:21:40 24° NNE visible
09 Sep 11.2 23:37:13 10° NW 23:39:02 13° NW 23:39:02 13° NW visible
10 Sep 9.3 02:32:13 46° ENE 02:32:13 46° ENE 02:37:15 10° E visible
10 Sep 8.3 04:49:32 29° W 04:54:53 56° NNW 05:00:56 10° NE visible
10 Sep 11.2 20:01:03 10° N 20:15:26 19° NE 20:15:26 19° NE visible
10 Sep 11.2 22:23:34 10° NW 22:32:49 26° NNW 22:32:49 26° NNW visible
11 Sep 10.4 01:25:15 19° E 01:25:15 19° E 01:27:02 10° E visible
11 Sep 8.5 03:42:33 64° NW 03:43:57 71° NNW 03:51:20 10° ENE visible
11 Sep 8.8 06:01:19 10° W 06:08:52 29° NW 06:13:43 10° NNE visible
11 Sep 11.4 19:01:39 10° NE 19:03:06 10° NE 19:04:33 10° NE visible
11 Sep 10.9 21:11:19 10° NNW 21:26:41 32° N 21:26:41 32° N visible
11 Sep 11.5 23:39:59 10° NW 23:44:05 17° NW 23:44:05 17° NW visible
